Location: Unspecified
(43.8044°N, 11.0278°E)
Time: 12:15:16
(UTC+02:00)

Okean 3 - Visible Passes

Search period start: 21 April 2014 00:00
Search period end: 01 May 2014 00:00
Orbit: 583 x 612 km, 82.5° (Epoch: 20 April)

Date Brightness Start Highest point End Pass type
(mag) Time Alt. Az. Time Alt. Az. Time Alt. Az.
21 Apr 4.1 21:13:08 11° SSE 21:16:58 36° E 21:20:53 10° NNE visible
21 Apr 6.0 22:51:23 10° WSW 22:54:30 20° WNW 22:57:38 10° NNW visible
22 Apr 3.5 21:23:21 10° S 21:27:33 59° E 21:31:44 10° NNE visible
22 Apr 6.4 23:03:23 10° W 23:05:22 13° WNW 23:07:22 10° NW visible
23 Apr 3.5 21:33:54 10° S 21:38:10 86° W 21:42:27 10° N visible
24 Apr 4.2 21:44:41 10° SSW 21:48:51 53° W 21:53:01 10° N visible
25 Apr 5.2 21:55:42 10° SW 21:59:34 33° WNW 22:03:26 10° N visible
26 Apr 6.0 22:07:00 10° SW 22:10:20 22° WNW 22:13:40 10° NNW visible
27 Apr 3.7 20:39:18 10° S 20:43:24 50° E 20:47:31 10° NNE visible
27 Apr 6.5 22:18:45 10° WSW 22:21:09 15° WNW 22:23:33 10° NW visible
28 Apr 3.4 20:49:45 10° S 20:53:59 82° E 20:58:14 10° N visible
29 Apr 4.1 21:00:25 10° SSW 21:04:37 62° W 21:08:49 10° N visible
30 Apr 5.1 21:11:19 10° SW 21:15:17 38° WNW 21:19:15 10° N visible
